STARLINK-35350 (66187 NORAD) Tracking and Keplerian Element Data

This shows tracking and keplerian element data for the satellite.

Feedback or suggestion? Click here.




ElementValue
Catalog66187
NameSTARLINK-35350
Epoch Orbit845
Epoch Day354.02940271
Epoch Year2025
RAAN255.5383
Inclination53.1591
Eccentricity0.0001099
Argument of Perigee76.0346
Mean Anonmoly284.0777
Mean Motion15.30199817
Decay Rate9.769E-05
L11 66187U 25243L 25354.02940271 .00009769 00000+0 34153-3 0 9997
L22 66187 53.1591 255.5383 0001099 76.0346 284.0777 15.30199817 8456



Live tracking and technical data element details for STARLINK-35350 (NORAD 66187). STARLINK-35350 can be tracked NOW for your location showing map with azimuth and elevation plus other details from your city location.







IsCatalogInMostPopularTable: catalog: 66187, numindb: 3
Update: records affected: 1



GetName: 66187 STARLINK-35350

Hit Count: updated at: Sat, 07 Feb 2026 08:21:58 GMT